[Date Prev][Date Next][Thread Prev][Thread Next] - [Date Index][Thread Index][Author Index]

2 Line ISS Keps 8-22



ISS
1 25544U 98067A   02234.13738426  .00048138  00000-0  62309-3 0   702
2 25544  51.6388  81.9985 0016836 167.8300 332.0798 15.58248707214312


----
Via the sarex mailing list at AMSAT.ORG courtesy of AMSAT-NA.
To unsubscribe, send "unsubscribe sarex" to Majordomo@amsat.org



AMSAT Top AMSAT Home